{"data":{"norad_id":69282,"epoch":"2026-09-20T04:28:05.200320Z","epoch_age_seconds":57203,"freshness":"FRESH","line1":"1 69282U 26118R   26263.18617130  .00003983  00000+0  55118-3 0  9996","line2":"2 69282  51.8987 325.5834 0001991  49.3525 310.7610 14.79935183 18439","mean_motion":14.79935183,"eccentricity":0.0001991,"inclination_deg":51.8987,"raan_deg":325.5834,"arg_perigee_deg":49.3525,"mean_anomaly_deg":310.761,"bstar":0.00055118,"rev_number":1843,"period_min":97.301558645356,"perigee_km":628.13351174498,"apogee_km":630.92396424185,"semimajor_km":7007.6657379934,"source":"CELESTRAK","updated_at":"2026-09-20T09:00:24.780455Z"}}